• In Uzbekistan
  • List of Countries
  • For 7 days
  • Water Temperature
  • Weather Map
  • Weather Widgets
  • user-avatar
    Login

    Hourly Weather Solden

    Today, 22 August, Thursday

    Time Temperature Precipitation Wind Pressure Humidity
    00:00 +8°C° 0.1 mm 1 mps 588 mmHg 91%
    01:00 +8°C° 0 mm 1 mps 589 mmHg 91%
    02:00 +8°C° 0.1 mm 1 mps 588 mmHg 90%
    03:00 +8°C° 0.1 mm 1 mps 588 mmHg 90%
    04:00 +8°C° 0.1 mm 1 mps 588 mmHg 89%
    05:00 +9°C° 0.2 mm 1 mps 588 mmHg 89%
    06:00 +9°C° 0.2 mm 1 mps 589 mmHg 88%
    07:00 +10°C° 0 mm 1 mps 590 mmHg 86%
    08:00 +12°C° 0 mm 1 mps 590 mmHg 78%
    09:00 +13°C° 0 mm 1 mps 591 mmHg 70%
    10:00 +15°C° 0 mm 1 mps 592 mmHg 62%
    11:00 +16°C° 0.3 mm 1 mps 592 mmHg 60%
    12:00 +16°C° 0.3 mm 1 mps 592 mmHg 58%
    13:00 +18°C° 0 mm 1 mps 593 mmHg 57%
    14:00 +18°C° 0.6 mm 1 mps 592 mmHg 58%
    15:00 +16°C° 0.6 mm 1 mps 592 mmHg 59%
    16:00 +16°C° 0.6 mm 1 mps 592 mmHg 60%
    17:00 +15°C° 0.7 mm 1 mps 591 mmHg 68%
    18:00 +13°C° 0.7 mm 1 mps 590 mmHg 76%
    19:00 +11°C° 0.7 mm 1 mps 590 mmHg 85%
    20:00 +10°C° 0.3 mm 1 mps 590 mmHg 86%
    21:00 +9°C° 0.3 mm 1 mps 589 mmHg 86%
    22:00 +8°C° 0.3 mm 1 mps 589 mmHg 87%
    23:00 +8°C° 0 mm 1 mps 589 mmHg 88%

    Tomorrow, 23 August, Friday

    Time Temperature Precipitation Wind Pressure Humidity
    00:00 +8°C° 0 mm 1 mps 589 mmHg 88%
    01:00 +7°C° 0 mm 1 mps 588 mmHg 88%
    02:00 +7°C° 0 mm 1 mps 588 mmHg 88%
    03:00 +7°C° 0 mm 1 mps 588 mmHg 87%
    04:00 +7°C° 0 mm 1 mps 588 mmHg 87%
    05:00 +8°C° 0 mm 1 mps 589 mmHg 85%
    06:00 +8°C° 0 mm 0 mps 589 mmHg 83%
    07:00 +9°C° 0 mm 0 mps 590 mmHg 81%
    08:00 +12°C° 0.1 mm 1 mps 590 mmHg 76%
    09:00 +13°C° 0.1 mm 1 mps 591 mmHg 70%
    10:00 +15°C° 0.1 mm 1 mps 592 mmHg 64%
    11:00 +15°C° 0.6 mm 1 mps 592 mmHg 63%
    12:00 +16°C° 0.6 mm 1 mps 592 mmHg 62%
    13:00 +18°C° 0.6 mm 1 mps 592 mmHg 62%
    14:00 +16°C° 0.7 mm 1 mps 592 mmHg 65%
    15:00 +16°C° 0.7 mm 1 mps 591 mmHg 68%
    16:00 +15°C° 0.7 mm 1 mps 591 mmHg 71%
    17:00 +14°C° 0.4 mm 1 mps 590 mmHg 76%
    18:00 +11°C° 0.4 mm 0 mps 590 mmHg 81%
    19:00 +10°C° 0.4 mm 0 mps 589 mmHg 86%
    20:00 +9°C° 0.2 mm 0 mps 589 mmHg 86%
    21:00 +8°C° 0.2 mm 0 mps 588 mmHg 86%
    22:00 +9°C° 0.2 mm 1 mps 588 mmHg 87%
    23:00 +9°C° 0 mm 1 mps 588 mmHg 86%

    Day after tomorrow, 24 August, Saturday

    Time Temperature Precipitation Wind Pressure Humidity
    00:00 +8°C° 0 mm 1 mps 588 mmHg 86%
    01:00 +8°C° 0 mm 1 mps 587 mmHg 86%
    02:00 +8°C° 0 mm 1 mps 587 mmHg 86%
    03:00 +7°C° 0 mm 1 mps 587 mmHg 86%
    04:00 +7°C° 0 mm 1 mps 587 mmHg 86%
    05:00 +8°C° 0 mm 1 mps 587 mmHg 85%
    06:00 +9°C° 0 mm 1 mps 588 mmHg 83%
    07:00 +9°C° 0 mm 0 mps 588 mmHg 81%
    08:00 +12°C° 0 mm 1 mps 589 mmHg 73%
    09:00 +14°C° 0 mm 1 mps 590 mmHg 66%
    10:00 +16°C° 0 mm 1 mps 591 mmHg 58%
    11:00 +18°C° 0.3 mm 1 mps 591 mmHg 56%
    12:00 +18°C° 0.3 mm 1 mps 591 mmHg 55%
    13:00 +19°C° 0.3 mm 1 mps 591 mmHg 53%
    14:00 +18°C° 0.7 mm 1 mps 591 mmHg 57%
    15:00 +18°C° 0.7 mm 1 mps 591 mmHg 61%
    16:00 +16°C° 0.7 mm 1 mps 590 mmHg 64%
    17:00 +15°C° 0.7 mm 1 mps 589 mmHg 71%
    18:00 +13°C° 0.7 mm 1 mps 588 mmHg 79%
    19:00 +10°C° 0.7 mm 0 mps 588 mmHg 86%
    20:00 +11°C° 0.5 mm 1 mps 588 mmHg 86%
    21:00 +10°C° 0.5 mm 1 mps 588 mmHg 87%
    22:00 +9°C° 0.5 mm 1 mps 588 mmHg 87%
    23:00 +9°C° 0.1 mm 1 mps 587 mmHg 87%

    25 August, Sunday

    Time Temperature Precipitation Wind Pressure Humidity
    00:00 +8°C° 0.1 mm 1 mps 587 mmHg 88%
    01:00 +8°C° 0.1 mm 1 mps 587 mmHg 88%
    02:00 +8°C° 0 mm 1 mps 586 mmHg 88%
    03:00 +7°C° 0 mm 1 mps 586 mmHg 88%
    04:00 +7°C° 0 mm 1 mps 586 mmHg 89%
    05:00 +8°C° 0 mm 1 mps 587 mmHg 86%
    06:00 +9°C° 0 mm 1 mps 587 mmHg 84%
    07:00 +10°C° 0 mm 0 mps 588 mmHg 82%
    08:00 +12°C° 0 mm 1 mps 589 mmHg 74%
    09:00 +14°C° 0 mm 1 mps 590 mmHg 66%
    10:00 +16°C° 0 mm 1 mps 591 mmHg 59%
    11:00 +18°C° 0.5 mm 1 mps 591 mmHg 57%
    12:00 +18°C° 0.5 mm 1 mps 591 mmHg 55%
    13:00 +18°C° 0.5 mm 2 mps 591 mmHg 53%
    14:00 +18°C° 0.6 mm 2 mps 591 mmHg 54%
    15:00 +18°C° 0.6 mm 1 mps 590 mmHg 55%
    16:00 +18°C° 0.6 mm 1 mps 590 mmHg 56%
    17:00 +15°C° 0.6 mm 1 mps 589 mmHg 65%
    18:00 +13°C° 0.6 mm 1 mps 588 mmHg 74%
    19:00 +12°C° 0.6 mm 1 mps 588 mmHg 83%
    20:00 +11°C° 0.4 mm 1 mps 588 mmHg 85%
    21:00 +10°C° 0.4 mm 1 mps 588 mmHg 86%
    22:00 +9°C° 0.4 mm 1 mps 587 mmHg 88%
    23:00 +9°C° 0.2 mm 1 mps 587 mmHg 88%

    26 August, Monday

    Time Temperature Precipitation Wind Pressure Humidity
    00:00 +9°C° 0.2 mm 1 mps 587 mmHg 89%
    01:00 +8°C° 0.2 mm 1 mps 587 mmHg 89%
    02:00 +8°C° 0 mm 1 mps 586 mmHg 89%
    03:00 +8°C° 0 mm 1 mps 586 mmHg 89%
    04:00 +7°C° 0 mm 1 mps 586 mmHg 89%
    05:00 +8°C° 0 mm 1 mps 586 mmHg 87%
    06:00 +9°C° 0 mm 0 mps 587 mmHg 85%
    07:00 +10°C° 0 mm 0 mps 588 mmHg 83%
    08:00 +12°C° 0.2 mm 1 mps 588 mmHg 78%
    09:00 +14°C° 0.2 mm 1 mps 589 mmHg 72%
    10:00 +16°C° 0.2 mm 1 mps 590 mmHg 67%
    11:00 +16°C° 0.9 mm 1 mps 590 mmHg 64%
    12:00 +18°C° 0.9 mm 1 mps 590 mmHg 61%
    13:00 +17°C° 0.9 mm 2 mps 590 mmHg 58%
    14:00 +17°C° 0.5 mm 2 mps 590 mmHg 59%
    15:00 +18°C° 0.5 mm 1 mps 589 mmHg 59%
    16:00 +18°C° 0.5 mm 1 mps 589 mmHg 59%
    17:00 +15°C° 0.3 mm 1 mps 588 mmHg 68%
    18:00 +13°C° 0.3 mm 1 mps 587 mmHg 76%
    19:00 +11°C° 0.3 mm 1 mps 587 mmHg 84%
    20:00 +11°C° 0.3 mm 1 mps 586 mmHg 86%
    21:00 +10°C° 0.3 mm 1 mps 586 mmHg 87%
    22:00 +9°C° 0.3 mm 1 mps 586 mmHg 88%
    23:00 +9°C° 0 mm 1 mps 586 mmHg 89%

    27 August, Tuesday

    Time Temperature Precipitation Wind Pressure Humidity
    00:00 +8°C° 0 mm 1 mps 586 mmHg 89%
    01:00 +8°C° 0 mm 1 mps 586 mmHg 90%
    02:00 +8°C° 0 mm 1 mps 585 mmHg 90%
    03:00 +8°C° 0 mm 1 mps 585 mmHg 90%
    04:00 +7°C° 0 mm 1 mps 585 mmHg 90%
    05:00 +8°C° 0 mm 1 mps 586 mmHg 88%
    06:00 +9°C° 0 mm 1 mps 586 mmHg 86%
    07:00 +10°C° 0 mm 0 mps 587 mmHg 85%
    08:00 +12°C° 0.1 mm 1 mps 588 mmHg 77%
    09:00 +14°C° 0.1 mm 1 mps 588 mmHg 70%
    10:00 +16°C° 0.1 mm 1 mps 589 mmHg 63%
    11:00 +16°C° 0.7 mm 1 mps 589 mmHg 62%
    12:00 +18°C° 0.7 mm 1 mps 589 mmHg 60%
    13:00 +17°C° 0.7 mm 2 mps 590 mmHg 59%
    14:00 +17°C° 0.8 mm 2 mps 589 mmHg 62%
    15:00 +16°C° 0.8 mm 2 mps 589 mmHg 65%
    16:00 +16°C° 0.8 mm 2 mps 588 mmHg 68%
    17:00 +14°C° 0.7 mm 1 mps 588 mmHg 75%
    18:00 +13°C° 0.7 mm 1 mps 587 mmHg 82%
    19:00 +11°C° 0.7 mm 1 mps 586 mmHg 88%
    20:00 +10°C° 0.1 mm 1 mps 586 mmHg 89%
    21:00 +9°C° 0.1 mm 1 mps 586 mmHg 89%
    22:00 +9°C° 0.1 mm 1 mps 586 mmHg 90%
    23:00 +8°C° 0 mm 1 mps 586 mmHg 90%
    Show more